Regional Weather Roundup
Issued by NWS

Home | Current Version | Previous Version | Graphics & Text | Print | Product List | Glossary On
Versions: 1 2 3 4 5 6 7 8 9 10 11 12 13 14 15 16 17 18 19 20 21 22 23 24 25 26 27 28 29 30 31 32 33 34 35 36 37 38 39 40 41 42 43 44 45 46 47 48 49 50
000
ASUS43 KIND 271459
RWRIN

WEATHER ROUNDUP FOR INDIANA
NATIONAL WEATHER SERVICE INDIANAPOLIS IN
1100 AM EDT MON APR 27 2015

NOTE: "FAIR" INDICATES FEW OR NO CLOUDS BELOW 12,000 FEET WITH NO
SIGNIFICANT WEATHER AND/OR OBSTRUCTIONS TO VISIBILITY.

* - STATION DOES NOT REPORT WEATHER SUCH AS PRECIPITATION OR FOG.

+ - STATION NOT QUALITY CONTROLLED BY THE NATIONAL WEATHER SERVICE.
    USE DATA WITH CAUTION...ESPECIALLY DEWPOINT AND RELATIVE
    HUMIDITY OBSERVATIONS.

INZ001>003-010>013-019-020-271600-
NORTHWEST INDIANA

CITY           SKY/WX    TMP DP  RH WIND       PRES   REMARKS
GARY /AIRPORT/ MOSUNNY   50  32  50 NW14G26   30.13R

$$

LMZ046-743>745-271600-
SOUTHERN LAKE MICHIGAN

STATION/POSITION TIME  TEMP    WIND        PRES    WAVE
                       AIR SEA DIR/SP/G            HT
                 (UTC) (F)     (DEG/KT/KT) (MB)    (FT)
BURNS HARBOR     1400   42     330/ 14/ 18 1020.0R
MICHIGAN CITY    1400   40     320/ 17/ 20   N/A
5NW MICH CITY    1400   40 45  340/ 14/ 17   N/A     4

$$

INZ004-005-014>016-021>024-271600-
NORTH CENTRAL INDIANA

CITY           SKY/WX    TMP DP  RH WIND       PRES   REMARKS
GOSHEN         PTSUNNY   49  36  61 NW13      30.03S
SOUTH BEND     CLOUDY    48  35  60 NW12      30.07R

$$

INZ006>009-017-018-025>027-271600-
NORTHEAST INDIANA

CITY           SKY/WX    TMP DP  RH WIND       PRES   REMARKS
ANGOLA *+      PTSUNNY   46  34  61 VRB7      30.01R
FORT WAYNE     MOSUNNY   50  36  58 NW9       30.02F

$$

INZ028-029-035-036-043>045-051>053-271600-
WEST CENTRAL INDIANA

CITY           SKY/WX    TMP DP  RH WIND       PRES   REMARKS
CRAWFORDSVL +  SUNNY     48  32  55 N14G21    30.05S
GREENCASTLE +  SUNNY     50  32  50 N10       30.04S
LAFAYETTE      SUNNY     50  36  58 N13       30.06F
TERRE HAUTE    SUNNY     51  36  56 N17       30.05F

$$

INZ030>032-037>040-046>048-054>057-064-065-271600-
CENTRAL INDIANA

CITY           SKY/WX    TMP DP  RH WIND       PRES   REMARKS
ANDERSON       SUNNY     48  34  57 NW12      30.02F
COLUMBUS       SUNNY     50  37  62 N13       30.02S
FRANKFORT +    SUNNY     48  38  68 NW16      30.06S
GREENWOOD *+   SUNNY     50  32  50 N13G20    30.02F
INDIANAPOLIS   MOSUNNY   51  35  54 N16       30.01F
-EAGLE CREEK   SUNNY     50  36  58 N14       30.02F
KOKOMO *+      SUNNY     48  37  66 NW14      30.03F
MT COMFORT *+  SUNNY     50  28  43 N13       30.02S
SHELBYVILLE    SUNNY     53  37  54 N14       30.00F

$$

INZ033-034-041-042-049-050-058-059-271600-
EAST CENTRAL INDIANA

CITY           SKY/WX    TMP DP  RH WIND       PRES   REMARKS
MUNCIE         SUNNY     50  38  63 N13       30.01S

$$

INZ060-061-067>069-081>083-085>088-271600-
SOUTHWEST INDIANA

CITY           SKY/WX    TMP DP  RH WIND       PRES   REMARKS
EVANSVILLE     MOSUNNY   54  34  46 NW9       30.08R
HUNTINGBURG *+ SUNNY     52  34  50 NW7       30.05R

$$

INZ062-063-066-070>080-084-089>092-271600-
SOUTH CENTRAL AND SOUTHEAST INDIANA

CITY           SKY/WX    TMP DP  RH WIND       PRES   REMARKS
BLOOMINGTON    SUNNY     53  35  50 N17       30.01F
MADISON *+     SUNNY     54  34  47 N5        30.01R
SEYMOUR +      SUNNY     54  36  50 N9        30.01S

$$




USA.gov is the U.S. government's official web portal to all federal, state and local government web resources and services.